User: anonymous   Login
Location: Choisy
(48.7685°N, 2.4187°E)
Time: 02:32:45
(UTC+00:00)
Language:

Cosmos 2333 Rocket - Orbit

View from above orbital plane
View from above orbital plane
View from above satellite
View from above satellite

Ground track
Ground track

The orbit data is extracted from the following two-line orbital elements,

1 24298U 96051B   22020.57943411 -.00000047  00000-0  12253-5 0  9996
2 24298  70.8202 122.8659 0018478 215.6584 144.3303 14.12402818308558
Epoch (UTC): 20 January 2022 13:54:23
Eccentricity: 0.0018478
inclination: 70.8202°
perigee height: 838 km
apogee height: 864 km
right ascension of ascending node: 122.8659°
argument of perigee: 215.6584°
revolutions per day: 14.12402818
mean anomaly at epoch: 144.3303°
orbit number at epoch: 30855

The dashed part of the orbit path shows where the satellite is in the earth's shadow,  

DLR